When you browse on this site, cookies collect data to enhance your experience and personalize the content and advertising you see.
Visit our Privacy Policy to learn more. By continuing to use the site, you agree to this use of cookies and data.
  • In Switzerland
  • List of Countries
  • For 7 days
  • Water Temperature
  • Weather Map
  • Weather Widgets
  • user-avatar
    Login

    Hourly Weather Chalons-en-Champagne

    Today, 12 November, Tuesday

    Time Temperature Precipitation Wind Pressure Humidity
    00:00 +1°C° 0 mm 5 mps 748 mmHg 92%
    01:00 +1°C° 0 mm 5 mps 747 mmHg 93%
    02:00 +1°C° 0 mm 5 mps 747 mmHg 94%
    03:00 +1°C° 0 mm 5 mps 747 mmHg 95%
    04:00 +1°C° 0 mm 6 mps 746 mmHg 93%
    05:00 +2°C° 0 mm 6 mps 746 mmHg 92%
    06:00 +2°C° 0 mm 6 mps 746 mmHg 89%
    07:00 +3°C° 0 mm 6 mps 746 mmHg 89%
    08:00 +3°C° 0 mm 6 mps 746 mmHg 88%
    09:00 +3°C° 0 mm 7 mps 746 mmHg 88%
    10:00 +4°C° 0.1 mm 6 mps 746 mmHg 87%
    11:00 +4°C° 0.1 mm 6 mps 745 mmHg 86%
    12:00 +5°C° 0.1 mm 5 mps 745 mmHg 85%
    13:00 +5°C° 0.3 mm 5 mps 745 mmHg 85%
    14:00 +5°C° 0.3 mm 4 mps 745 mmHg 85%
    15:00 +5°C° 0.3 mm 4 mps 745 mmHg 85%
    16:00 +4°C° 0 mm 3 mps 745 mmHg 88%
    17:00 +3°C° 0 mm 3 mps 745 mmHg 90%
    18:00 +2°C° 0 mm 3 mps 745 mmHg 93%
    19:00 +2°C° 0 mm 3 mps 745 mmHg 93%
    20:00 +2°C° 0 mm 3 mps 745 mmHg 94%
    21:00 +2°C° 0 mm 3 mps 745 mmHg 95%
    22:00 +1°C° 0 mm 3 mps 744 mmHg 94%
    23:00 +1°C° 0 mm 3 mps 744 mmHg 94%

    Tomorrow, 13 November, Wednesday

    Time Temperature Precipitation Wind Pressure Humidity
    00:00 +1°C° 0 mm 3 mps 744 mmHg 94%
    01:00 +2°C° 0.1 mm 3 mps 744 mmHg 93%
    02:00 +2°C° 0.1 mm 3 mps 744 mmHg 93%
    03:00 +2°C° 0.1 mm 3 mps 744 mmHg 92%
    04:00 +2°C° 0.1 mm 3 mps 744 mmHg 92%
    05:00 +2°C° 0.1 mm 3 mps 744 mmHg 93%
    06:00 +3°C° 0.1 mm 3 mps 744 mmHg 93%
    07:00 +3°C° 0.1 mm 4 mps 744 mmHg 93%
    08:00 +3°C° 0.1 mm 4 mps 745 mmHg 92%
    09:00 +4°C° 0.1 mm 4 mps 745 mmHg 92%
    10:00 +5°C° 0 mm 4 mps 745 mmHg 90%
    11:00 +5°C° 0 mm 4 mps 745 mmHg 88%
    12:00 +6°C° 0 mm 4 mps 745 mmHg 86%
    13:00 +6°C° 0 mm 4 mps 744 mmHg 86%
    14:00 +6°C° 0 mm 4 mps 744 mmHg 85%
    15:00 +6°C° 0 mm 4 mps 744 mmHg 85%
    16:00 +6°C° 0.1 mm 4 mps 743 mmHg 87%
    17:00 +5°C° 0.1 mm 4 mps 743 mmHg 88%
    18:00 +5°C° 0.1 mm 4 mps 743 mmHg 90%
    19:00 +5°C° 0.1 mm 5 mps 743 mmHg 90%
    20:00 +3°C° 0.1 mm 5 mps 742 mmHg 89%
    21:00 +3°C° 0.1 mm 5 mps 742 mmHg 89%
    22:00 +3°C° 0 mm 5 mps 741 mmHg 88%
    23:00 +2°C° 0 mm 5 mps 741 mmHg 88%

    Day after tomorrow, 14 November, Thursday

    Time Temperature Precipitation Wind Pressure Humidity
    00:00 +2°C° 0 mm 6 mps 740 mmHg 87%
    01:00 +2°C° 0.4 mm 6 mps 740 mmHg 88%
    02:00 +2°C° 0.4 mm 6 mps 739 mmHg 89%
    03:00 +2°C° 0.4 mm 7 mps 739 mmHg 90%
    04:00 +2°C° 0.8 mm 6 mps 739 mmHg 91%
    05:00 +2°C° 0.8 mm 5 mps 739 mmHg 92%
    06:00 +3°C° 0.8 mm 5 mps 740 mmHg 92%
    07:00 +3°C° 0.1 mm 5 mps 740 mmHg 91%
    08:00 +4°C° 0.1 mm 4 mps 741 mmHg 89%
    09:00 +4°C° 0.1 mm 4 mps 742 mmHg 88%
    10:00 +5°C° 0.1 mm 4 mps 742 mmHg 85%
    11:00 +5°C° 0.1 mm 3 mps 742 mmHg 81%
    12:00 +7°C° 0.1 mm 3 mps 742 mmHg 78%
    13:00 +7°C° 0 mm 3 mps 742 mmHg 79%
    14:00 +7°C° 0 mm 2 mps 742 mmHg 80%
    15:00 +7°C° 0 mm 2 mps 742 mmHg 81%
    16:00 +6°C° 0 mm 2 mps 742 mmHg 83%
    17:00 +5°C° 0 mm 2 mps 742 mmHg 86%
    18:00 +6°C° 0 mm 1 mps 743 mmHg 88%
    19:00 +5°C° 0 mm 1 mps 743 mmHg 90%
    20:00 +4°C° 0 mm 2 mps 743 mmHg 91%
    21:00 +4°C° 0 mm 2 mps 743 mmHg 92%
    22:00 +4°C° 0 mm 2 mps 743 mmHg 92%
    23:00 +4°C° 0 mm 2 mps 743 mmHg 93%

    15 November, Friday

    Time Temperature Precipitation Wind Pressure Humidity
    00:00 +3°C° 0 mm 2 mps 743 mmHg 94%
    01:00 +4°C° 0 mm 1 mps 743 mmHg 93%
    02:00 +4°C° 0 mm 1 mps 743 mmHg 92%
    03:00 +4°C° 0 mm 1 mps 743 mmHg 92%
    04:00 +4°C° 0 mm 1 mps 743 mmHg 92%
    05:00 +4°C° 0 mm 1 mps 743 mmHg 92%
    06:00 +3°C° 0 mm 2 mps 743 mmHg 92%
    07:00 +3°C° 0.1 mm 2 mps 743 mmHg 93%
    08:00 +4°C° 0.1 mm 2 mps 744 mmHg 93%
    09:00 +4°C° 0.1 mm 2 mps 744 mmHg 94%
    10:00 +4°C° 0.1 mm 2 mps 745 mmHg 94%
    11:00 +4°C° 0.1 mm 2 mps 745 mmHg 94%
    12:00 +4°C° 0.1 mm 2 mps 745 mmHg 94%
    13:00 +5°C° 0 mm 1 mps 745 mmHg 93%
    14:00 +5°C° 0 mm 1 mps 744 mmHg 91%
    15:00 +6°C° 0 mm 1 mps 744 mmHg 89%
    16:00 +5°C° 0 mm 1 mps 745 mmHg 90%
    17:00 +4°C° 0 mm 2 mps 745 mmHg 91%
    18:00 +3°C° 0 mm 2 mps 745 mmHg 92%
    19:00 +3°C° 0 mm 2 mps 745 mmHg 93%
    20:00 +3°C° 0 mm 2 mps 746 mmHg 94%
    21:00 +1°C° 0 mm 3 mps 746 mmHg 95%
    22:00 +1°C° 0 mm 3 mps 746 mmHg 95%
    23:00 +1°C° 0 mm 3 mps 746 mmHg 94%

    16 November, Saturday

    Time Temperature Precipitation Wind Pressure Humidity
    00:00 0°C° 0 mm 3 mps 746 mmHg 94%
    01:00 -1°C° 0 mm 4 mps 746 mmHg 93%
    02:00 -1°C° 0 mm 4 mps 746 mmHg 92%
    03:00 -1°C° 0 mm 4 mps 746 mmHg 91%
    04:00 -1°C° 0 mm 4 mps 747 mmHg 92%
    05:00 -1°C° 0 mm 4 mps 747 mmHg 92%
    06:00 -1°C° 0 mm 4 mps 747 mmHg 92%
    07:00 -1°C° 0 mm 4 mps 747 mmHg 90%
    08:00 0°C° 0 mm 5 mps 748 mmHg 88%
    09:00 +1°C° 0 mm 5 mps 748 mmHg 87%
    10:00 +2°C° 0 mm 5 mps 748 mmHg 83%
    11:00 +3°C° 0 mm 6 mps 748 mmHg 80%
    12:00 +4°C° 0 mm 6 mps 749 mmHg 77%
    13:00 +4°C° 0 mm 6 mps 748 mmHg 77%
    14:00 +5°C° 0 mm 5 mps 748 mmHg 77%
    15:00 +5°C° 0 mm 5 mps 748 mmHg 78%
    16:00 +5°C° 0 mm 5 mps 749 mmHg 79%
    17:00 +5°C° 0 mm 4 mps 749 mmHg 81%
    18:00 +4°C° 0 mm 4 mps 749 mmHg 82%
    19:00 +3°C° 0 mm 5 mps 749 mmHg 84%
    20:00 +3°C° 0 mm 5 mps 750 mmHg 86%
    21:00 +2°C° 0 mm 5 mps 750 mmHg 88%
    22:00 +2°C° 0 mm 5 mps 749 mmHg 90%
    23:00 +1°C° 0 mm 4 mps 749 mmHg 92%

    17 November, Sunday

    Time Temperature Precipitation Wind Pressure Humidity
    00:00 +1°C° 0 mm 4 mps 749 mmHg 93%
    01:00 +1°C° 0 mm 4 mps 749 mmHg 92%
    02:00 +1°C° 0 mm 4 mps 749 mmHg 91%
    03:00 +1°C° 0 mm 4 mps 749 mmHg 90%
    04:00 +3°C° 0 mm 4 mps 749 mmHg 91%
    05:00 +3°C° 0 mm 3 mps 748 mmHg 91%
    06:00 +3°C° 0 mm 3 mps 748 mmHg 91%
    07:00 +3°C° 0 mm 3 mps 749 mmHg 90%
    08:00 +3°C° 0 mm 3 mps 749 mmHg 89%
    09:00 +5°C° 0 mm 2 mps 749 mmHg 88%
    10:00 +5°C° 0 mm 2 mps 749 mmHg 85%
    11:00 +6°C° 0 mm 2 mps 748 mmHg 82%
    12:00 +7°C° 0 mm 2 mps 748 mmHg 80%
    13:00 +8°C° 0 mm 1 mps 748 mmHg 80%
    14:00 +8°C° 0 mm 1 mps 748 mmHg 80%
    15:00 +7°C° 0 mm 1 mps 748 mmHg 80%
    16:00 +7°C° 0 mm 1 mps 748 mmHg 82%
    17:00 +7°C° 0 mm 1 mps 748 mmHg 84%
    18:00 +6°C° 0 mm 1 mps 748 mmHg 85%
    19:00 +6°C° 0 mm 1 mps 748 mmHg 87%
    20:00 +5°C° 0 mm 1 mps 748 mmHg 89%
    21:00 +4°C° 0 mm 1 mps 748 mmHg 91%
    22:00 +4°C° 0 mm 1 mps 748 mmHg 91%
    23:00 +4°C° 0 mm 1 mps 748 mmHg 91%
    Show more